#timestamp,LO_Frequency,Hit,StdDev 
1509386415.9,286046998.5,N
1509386435.7,286046997.5,N
1509386455.5,286046994.9,Y
1509386475.4,286046995.1,P
1509386495.2,286046994.2,N
1509386515.0,286046994.5,N
1509386515.9,286046994.5,N
1509386535.8,286046991.7,Y
1509386555.6,286046996.5,P
1509386575.5,286046997.5,P
1509386595.3,286046992.0,P
1509386615.1,286046990.7,Y
1509386635.9,286046995.8,P
1509386655.7,286046997.6,P
1509386675.5,286046997.9,N
1509386695.4,286046998.6,N
1509386715.2,286047001.2,N
1509386735.0,286047002.6,N
1509386735.9,286047002.6,N
1509386755.8,286047002.1,N
1509386775.6,286047000.4,N
1509386795.4,286047001.3,N
1509386815.3,286047004.0,N
1509386835.1,286047001.8,N
1509386855.9,286047004.3,N
1509386875.7,286047001.4,N
1509386895.5,286047001.9,N
1509386915.4,286046999.9,N
1509386935.2,286047002.7,N
1509386955.0,286047001.2,N
1509386955.9,286047001.2,N
1509386975.8,286047000.8,N
1509386995.6,286047004.2,N
1509387015.4,286047001.1,N
1509387035.3,286046998.6,N
1509387055.1,286046998.9,N
1509387075.8,286046997.0,N
1509387095.7,286046995.1,N
1509387115.5,286046997.7,N
1509387135.3,286046994.6,N
1509387155.2,286046992.7,N
1509387175.9,286046992.6,N
1509387195.7,286046994.8,N
1509387215.6,286046993.0,N
1509387235.4,286046988.7,Y
1509387255.3,286046991.0,P
1509387275.1,286046992.3,N
1509387276.0,286046992.3,N
1509387295.8,286046991.0,N
1509387315.7,286046991.2,N
1509387335.5,286046990.9,Y
1509387355.3,286046998.2,P
1509387375.2,286046999.5,N
1509387395.0,286046995.6,N
1509387395.9,286046995.6,N
1509387415.7,286046994.9,N
1509387435.6,286046999.0,N
1509387455.4,286046999.4,N
1509387475.2,286046998.7,N
1509387495.1,286047002.7,N
1509387496.0,286047002.7,N
1509387515.8,286047000.4,N
1509387535.7,286047001.5,N
1509387555.5,286047004.1,N
1509387575.3,286046999.7,N
1509387595.2,286047002.6,N
1509387615.9,286047002.1,N
1509387635.7,286047000.0,N
1509387655.6,286046999.6,N
1509387675.4,286046997.3,N
1509387695.2,286046995.1,N
1509387715.1,286046995.1,N
1509387716.0,286046995.1,N
1509387735.8,286046995.2,N
1509387755.6,286046995.7,N
1509387775.5,286046997.7,N
1509387795.3,286046997.9,N
1509387815.1,286046999.9,N
1509387835.9,286047002.7,N
1509387855.7,286047001.5,N
1509387875.5,286047000.3,N
1509387895.4,286046998.3,N
1509387915.2,286046996.6,N
1509387935.0,286046999.0,N
1509387935.9,286046999.0,N
1509387955.8,286046991.8,Y
1509387975.6,286046995.8,P
1509387995.4,286046993.7,P
1509388015.3,286046992.1,P
1509388035.1,286046996.2,N
1509388055.8,286046994.1,N
1509388075.7,286046994.6,N
1509388095.5,286046990.5,Y
1509388115.4,286046998.6,P
1509388135.2,286046996.9,N
1509388155.0,286046998.8,N
1509388155.9,286046998.8,N
1509388175.8,286046998.8,N
1509388195.6,286047002.8,N
1509388215.4,286047002.2,N
1509388235.3,286046999.7,N
1509388255.1,286047002.2,N
1509388256.0,286047002.2,N
1509388275.8,286047002.1,N
1509388295.7,286047003.9,N
1509388315.5,286047003.3,N
1509388335.3,286047005.2,N
1509388355.2,286047007.3,N
1509388375.9,286047004.6,N
1509388395.7,286047004.9,N
1509388415.6,286047008.0,N
1509388435.4,286047006.8,N
1509388455.2,286047006.1,N
1509388475.1,286047006.4,N
1509388476.0,286047006.4,N
1509388495.8,286047004.9,N
1509388515.6,286047007.4,N
1509388535.5,286047009.0,N
1509388555.3,286047008.5,N
1509388575.1,286047009.2,N
1509388595.9,286047005.8,N
1509388615.7,286047006.6,N
1509388635.5,286047007.7,N
1509388655.4,286047007.1,N
1509388675.2,286047001.5,N
1509388695.1,286047002.9,N
1509388696.0,286047002.9,N
1509388715.8,286047004.3,N
1509388735.6,286047003.3,N
1509388755.5,286047004.8,N
1509388775.3,286047007.6,Y
1509388795.1,286046999.4,P
1509388815.9,286047000.8,N
1509388835.7,286047000.1,N
1509388855.5,286047004.4,N
1509388875.4,286047005.4,N
1509388895.2,286047009.2,Y
1509388915.0,286047004.8,P
1509388916.0,286047004.8,P
1509388935.8,286047006.0,P
1509388955.6,286047004.9,Y
1509388975.5,286046999.7,P
1509388995.3,286047001.9,N
1509389015.1,286047005.8,N
1509389035.9,286047007.6,Y
1509389055.7,286047000.1,P
1509389075.6,286047002.4,N
1509389095.4,286047002.3,N
1509389115.2,286047002.0,N
1509389135.1,286047001.7,N
1509389136.0,286047001.7,N
1509389155.8,286047001.7,N
1509389175.6,286047000.0,N
1509389195.5,286047001.0,N
1509389215.3,286047002.8,Y
1509389235.1,286047001.2,P
1509389255.9,286046997.5,P
1509389275.7,286046994.8,N
1509389295.5,286046992.8,N
1509389315.4,286046992.5,N
1509389335.2,286046994.7,N
1509389355.0,286046996.0,N
1509389355.9,286046996.0,N
1509389375.8,286046993.6,N
1509389395.6,286046993.7,N
1509389415.4,286046993.6,N
1509389435.3,286046996.3,N
1509389455.1,286046993.3,N
1509389475.8,286046996.1,N
1509389495.7,286046997.6,N
1509389515.5,286046995.4,N
1509389535.4,286046995.2,N
1509389555.2,286046995.6,N
1509389575.0,286046993.7,N
1509389575.9,286046993.7,N
1509389595.8,286046994.2,N
1509389615.6,286046991.8,Y
1509389635.4,286046993.5,P
1509389655.3,286046996.2,P
1509389675.1,286046993.5,P
1509389695.8,286046995.2,Y
1509389715.7,286047001.6,P
1509389735.5,286047000.7,N
1509389755.4,286046999.9,N
1509389775.2,286047003.6,N
1509389795.0,286047002.0,N
1509389795.9,286047002.0,N
1509389815.8,286047004.1,N
1509389835.6,286047001.3,N
1509389855.4,286047002.2,N
1509389875.3,286047004.4,N
1509389895.1,286047005.9,N
1509389896.0,286047005.9,N
1509389915.8,286047002.3,N
1509389935.7,286046997.2,N
1509389955.5,286046995.7,N
1509389975.3,286046996.0,N
1509389995.2,286046992.3,N
